Location: Crescent
(42.8242°N, 73.7329°W)
Time: 18:20:32
(UTC+00:00)

Vanguard 1 - Pass Details

Date: 18 February 2026
Orbit: 653 x 3818 km, 34.2° (Epoch: 5 March)

Event Time Altitude Azimuth Distance (km) Brightness Sun altitude
Rises 00:00:18 0° 271° (W) 5,913 15.8 -17.3°
Reaches altitude 10° 00:03:38 10° 268° (W) 5,248 15.1 -17.9°
Maximum altitude 00:20:21 60° 194° (SSW) 3,826 13.0 -21.0°
Enters shadow 00:38:11 21° 126° (SE) 6,019 13.5 -24.2°
Drops below altitude 10° 00:43:06 10° 122° (ESE) 6,841 - -25.1°
Sets 00:48:15 0° 120° (ESE) 7,717 - -26.1°
